Satellite-Ground Cal/Val Site Overpasses Predictions

Prediction of Satellite NPP Overpassing Cal/Val Site: Antarctic Dome C

Ground Cal/Val Site Location: Latitude: -75.10, Longitude: 123.35; Satellite-Ground Site NADIR distance within 100 km.

Table of predicted overpasses for the next 14.0 days since TLE Epoch: 11/25/2024
Interval Starting Time Ending Time Minimum Distance Time Minimum Distance (km)
1 11/26/2024 15:07:13 11/26/2024 15:07:21 11/26/2024 15:07:17 95.26
2 11/27/2024 14:48:14 11/27/2024 14:48:43 11/27/2024 14:48:29 15.68
3 11/29/2024 07:31:09 11/29/2024 07:31:38 11/29/2024 07:31:24 2.69
4 12/02/2024 14:54:44 12/02/2024 14:55:13 12/02/2024 14:54:58 22.01
5 12/03/2024 14:36:05 12/03/2024 14:36:20 12/03/2024 14:36:12 84.87
6 12/04/2024 07:37:38 12/04/2024 07:38:06 12/04/2024 07:37:52 34.82
7 12/05/2024 07:18:55 12/05/2024 07:19:15 12/05/2024 07:19:05 74.97
8 12/07/2024 15:01:15 12/07/2024 15:01:39 12/07/2024 15:01:27 60.00
